San Diego Brown, CA

12:32 AM PDT on June 26, 2017 (GMT -0700)
Brown Municipal

Weather History for KSDM - October, 2012

Change the Weather History Date:

Saturday, October 27, 2012

  Actual Average Record
Temperature  
Mean Temperature 72 °F 63 °F  
Max Temperature 90 °F 75 °F 90 °F (2012)
Min Temperature 55 °F 52 °F 47 °F (2011)
Degree Days  
Heating Degree Days 0 3  
Month to date heating degree days 42  
Since 1 July heating degree days 52  
Cooling Degree Days 7 1  
Month to date cooling degree days 58  
Year to date cooling degree days 603  
Growing Degree Days 22 (Base 50)    
Moisture  
Dew Point 24 °F    
Average Humidity 22    
Maximum Humidity 48    
Minimum Humidity 6    
Precipitation  
Precipitation 0.00 in 0.02 in 1.56 in (2004)
Month to date precipitation 0.40  
Year to date precipitation 9.21  
Sea Level Pressure  
Sea Level Pressure 29.87 in    
Wind  
Wind Speed 4 mph (East)    
Max Wind Speed 13 mph    
Max Gust Speed 18 mph    
Visibility 10 miles    
Events      
T = Trace of Precipitation, MM = Missing Value Source: NWS Daily Summary

Daily Weather History Graph

Daily Weather History Graph

Search for Another Location

Airport or City:

Trip Planner

Search our weather history database for the weather conditions in past years. The results will help you decide how hot, cold, wet, or windy it might be!

Date:

Astronomy

Oct. 27, 2012 Rise Set
Actual Time 7:01 AM PDT 6:01 PM PDT
Civil Twilight 6:36 AM PDT 6:26 PM PDT
Nautical Twilight 6:07 AM PDT 6:55 PM PDT
Astronomical Twilight 5:38 AM PDT 7:24 PM PDT
Moon 4:46 PM PDT (10/27) 5:05 AM PDT (10/27)
Length of Visible Light 11h 50m
Length of Day
10h 59m
Waxing Gibbous, 96% of the Moon is Illuminated
Oct 27
Waxing Gibbous
Oct 29
Full
Nov 6
Last Quarter
Nov 13
New
Nov 20
First Quarter

Hourly Weather History & Observations

Time (PDT) Temp. Dew Point Humidity Pressure Visibility Wind Dir Wind Speed Gust Speed Precip Events Conditions
12:53 AM 57.9 °F 30.0 °F 35% 29.89 in 10.0 mi NE 3.5 mph - N/A   Clear
1:53 AM 60.1 °F 27.0 °F 28% 29.88 in 10.0 mi Calm Calm - N/A   Clear
2:53 AM 60.1 °F 24.1 °F 25% 29.87 in 10.0 mi East 5.8 mph - N/A   Clear
3:53 AM 64.9 °F 14.0 °F 14% 29.86 in 10.0 mi ENE 6.9 mph - N/A   Clear
4:53 AM 57.9 °F 21.9 °F 25% 29.87 in 10.0 mi East 4.6 mph - N/A   Clear
5:53 AM 59.0 °F 19.9 °F 22% 29.87 in 10.0 mi NE 3.5 mph - N/A   Clear
6:53 AM 55.9 °F 19.0 °F 24% 29.88 in 10.0 mi East 3.5 mph - N/A   Clear
7:53 AM 62.1 °F 21.0 °F 21% 29.89 in 10.0 mi ENE 5.8 mph - N/A   Clear
8:53 AM 73.0 °F 21.9 °F 15% 29.90 in 10.0 mi ESE 4.6 mph - N/A   Clear
9:53 AM 81.0 °F 15.1 °F 8% 29.89 in 10.0 mi Calm Calm - N/A   Clear
10:53 AM 84.0 °F 10.0 °F 6% 29.87 in 10.0 mi Calm Calm - N/A   Clear
11:53 AM 88.0 °F 16.0 °F 7% 29.85 in 10.0 mi Calm Calm - N/A   Clear
12:53 PM 89.1 °F 17.1 °F 7% 29.82 in 10.0 mi WNW 8.1 mph - N/A   Clear
1:53 PM 86.0 °F 19.0 °F 8% 29.81 in 10.0 mi West 12.7 mph 17.3 mph N/A   Clear
2:53 PM 82.9 °F 17.1 °F 9% 29.82 in 10.0 mi West 11.5 mph 18.4 mph N/A   Clear
3:53 PM 82.0 °F 21.0 °F 10% 29.82 in 10.0 mi West 10.4 mph - N/A   Clear
4:53 PM 79.0 °F 25.0 °F 14% 29.83 in 10.0 mi SW 5.8 mph - N/A   Clear
5:53 PM 75.0 °F 27.0 °F 17% 29.84 in 10.0 mi Calm Calm - N/A   Clear
6:53 PM 64.0 °F 36.0 °F 35% 29.88 in 10.0 mi Calm Calm - N/A   Clear
7:53 PM 64.9 °F 42.1 °F 43% 29.89 in 10.0 mi Calm Calm - N/A   Clear
8:53 PM 64.0 °F 44.1 °F 48% 29.90 in 10.0 mi Calm Calm - N/A   Clear
9:53 PM 60.1 °F 33.1 °F 36% 29.91 in 10.0 mi SE 3.5 mph - N/A   Clear
10:53 PM 60.1 °F 34.0 °F 38% 29.92 in 10.0 mi South 3.5 mph - N/A   Clear
11:53 PM 62.1 °F 25.0 °F 24% 29.91 in 10.0 mi Calm Calm - N/A   Clear